Home > Weather > Canelones > Past weeks

Flag for Uruguay Weather for the Past 2 Weeks in Canelones, Uruguay

Now
79 °F

Clear.


Feels Like: 81 °F
Forecast: 72 / 79 °F
Wind: 17 mph from Northeast

Location: Carrasco

Current Time: Feb 7, 2016 at 11:53:09 PM

Latest Report: Feb 7, 2016 at 11:00 PM


Visibility: 10 mi

Pressure: 29.77 "Hg

Humidity: 65%

Dew point: 66 °F

Location of CanelonesLocation

Historic Weather in Canelones — Graph

°F

Canelones Temperature Yesterday

Maximum temperature yesterday: 82 °F (at 12:00 PM)
Minimum temperature yesterday: 70 °F (at 4:00 AM)
Average temperature yesterday: 76 °F

High & Low Weather Summary for the Past Weeks

 TemperatureHumidityPressure
High99 °F (Jan 24, 5:00 PM)94% (Feb 2, 4:00 AM)30.12 "Hg (Feb 2, 4:00 AM)
Low57 °F (Feb 1, 7:00 AM)34% (Jan 24, 6:00 PM)29.56 "Hg (Jan 24, 6:00 PM)
Average74 °F68%29.94 "Hg
* Reported Jan 23 10:00 PM — Feb 7 10:00 PM, Canelones, Weather by CustomWeather, © 2016

Note: Actual official high and low records may vary slightly from our data, if they occured in-between our weather recording intervals... More about our weather records

Advertising

Canelones Weather History for the Previous 24 Hours

 ConditionsComfort  
Time TempWeatherWind HumidityBarometerVisibility
10:00 PM
Sun, Feb 7
77 °FClear.7 mph69%29.83 "Hg10 mi
9:00 PM75 °FClear.6 mph78%29.83 "Hg10 mi
8:00 PM73 °FClear.9 mph83%29.83 "Hg10 mi
7:00 PM75 °FSunny.8 mph78%29.83 "Hg10 mi
6:00 PM79 °FSunny.12 mph65%29.83 "Hg10 mi
5:00 PM81 °FSunny.12 mph58%29.83 "Hg10 mi
4:00 PM81 °FSunny.13 mph58%29.83 "Hg10 mi
3:00 PM90 °FPartly sunny.13 mph41%29.83 "HgN/A
2:00 PM90 °FPartly sunny.12 mph41%29.89 "HgN/A
1:00 PM84 °FPartly sunny.14 mph51%29.92 "HgN/A
12:00 PM82 °FPassing clouds.14 mph55%29.95 "HgN/A
11:00 AM82 °FPartly sunny.12 mph55%29.95 "HgN/A
10:00 AM79 °FPartly sunny.12 mph61%30.01 "HgN/A
9:00 AM77 °FPartly sunny.13 mph65%29.98 "HgN/A
8:00 AM73 °FSunny.13 mph74%29.95 "Hg10 mi
7:00 AM70 °FSunny.10 mph83%29.98 "Hg10 mi
6:00 AM70 °FPartly cloudy.9 mph78%29.98 "HgN/A
5:00 AM70 °FPartly cloudy.8 mph78%29.98 "HgN/A
4:00 AM70 °FClear.9 mph78%29.98 "Hg10 mi
3:00 AM70 °FClear.10 mph78%29.98 "Hg10 mi
2:00 AM72 °FClear.16 mph73%30.04 "Hg10 mi
1:00 AM73 °FClear.16 mph69%30.04 "Hg10 mi
12:00 AM77 °FClear.13 mph61%30.04 "Hg10 mi
11:00 PM
Sat, Feb 6
77 °FClear.13 mph61%30.04 "Hg10 mi
Weather by CustomWeather, © 2016

See weather overviewHow to use our weather pages